Main page
METAR-TAF:

METAR-TAF

Airports :

Dodge Center Airport (Dodge Center Municipal)

Dodge Center, Minnesota, United States

latitude: 44-01-05N, longitude: 092-49-53W, elevation: 1305 ft

Current weather observation

The report was made 21 minutes ago, at 03:35 UTC
Wind 9 mph from the Southwest
Temperature 54°F
Humidity 62%
Pressure 29.65 in. Hg
Visibility: 10 miles
Clear sky

METAR: KTOB 230335Z AUTO 22008KT 10SM CLR 12/05 A2965 RMK AO2

Time: 22:56 (03:56 UTC)


TAF: missing

Weather observations and forecasts of more than 4000 airports (METAR and TAF reports).

The available stations are represented by yellow and red dots on the map.

Hover mouse over dot to see the name of the station.

Then click to see weather observations and forecasts.

To change the map : click on the green buttons with a black cross to zoom in, on the green button with a dash to zoom out, or on the green arrows for adjacent maps.


METAR-TAF: